Home   Weather   Township of Washington   Past weeks
Flag for USA

Past Weather in Township of Washington, Arkansas, USA — Yesterday and Last 2 Weeks

Now
72 °F

Clear.


Feels Like: 69 °F
Forecast: 86 / 71 °F
Wind: 8 mph from South

Location: Texarkana Regional-Webb Field

Current Time: May 25, 2019 at 6:17:48 am

Latest Report: May 25, 2019 at 4:53 am


Visibility: 10 mi

Pressure: 30.04 "Hg

Humidity: 91%

Dew Point: 69 °F

Location of Township of WashingtonLocation

Past Weather in Township of Washington — Graph

°F

Township of Washington Temperature Yesterday

Maximum temperature yesterday: 88 °F (at 3:53 pm)
Minimum temperature yesterday: 71 °F (at 5:53 am)
Average temperature yesterday: 79 °F

High & Low Weather Summary for the Past Weeks

 TemperatureHumidityPressure
High88 °F (May 22, 4:53 pm)100% (May 11, 2:53 am)30.12 "Hg (May 11, 2:53 am)
Low55 °F (May 11, 2:21 am)36% (May 13, 3:53 pm)29.64 "Hg (May 21, 12:53 pm)
Average72 °F78%29.90 "Hg
* Reported May 10 4:53 am — May 25 4:53 am, Township of Washington. Weather by CustomWeather, © 2019

Note: Actual official high and low records may vary slightly from our data, if they occured in-between our weather recording intervals... More about our weather records

Advertising

Township of Washington Weather History for the Previous 24 Hours

Scroll right to see more
 ConditionsComfort  
Time TempWeatherWind HumidityBarometerVisibility
4:53 am
Sat, May 25
72 °FClear.8 mph91%30.04 "Hg10 mi
3:53 am72 °FClear.6 mph91%30.03 "Hg10 mi
2:53 am73 °FClear.5 mph88%30.03 "Hg10 mi
1:53 am76 °FPassing clouds.8 mph80%30.03 "Hg10 mi
12:53 am76 °FClear.8 mph80%30.03 "Hg10 mi
11:53 pm
Fri, May 24
77 °FClear.8 mph74%30.01 "Hg10 mi
10:53 pm77 °FClear.7 mph74%30.00 "Hg10 mi
9:53 pm78 °FClear.7 mph71%29.97 "Hg10 mi
8:53 pm77 °FClear.6 mph77%29.95 "Hg10 mi
7:53 pm81 °FSunny.6 mph67%29.95 "Hg10 mi
6:53 pm85 °FSunny.9 mph55%29.96 "Hg10 mi
5:53 pm86 °FSunny.10 mph53%29.98 "Hg10 mi
4:53 pm86 °FSunny.12 mph53%30.01 "Hg10 mi
3:53 pm88 °FPassing clouds.8 mph52%30.03 "Hg10 mi
3:12 pm87 °FPassing clouds.10 mph53%30.06 "Hg10 mi
2:53 pm86 °FScattered clouds.9 mph55%30.05 "Hg10 mi
1:53 pm86 °FPartly sunny.9 mph59%30.06 "Hg10 mi
12:53 pm85 °FPassing clouds.12 mph57%30.08 "Hg10 mi
11:53 am83 °FSunny.8 mph63%30.09 "Hg10 mi
10:53 am81 °FScattered clouds.8 mph69%30.09 "Hg10 mi
10:13 am80 °FPartly sunny.10 mph71%30.11 "Hg10 mi
10:02 am78 °FScattered clouds.12 mph76%30.12 "Hg10 mi
8:53 am75 °FPartly sunny.12 mph88%30.09 "Hg10 mi
8:00 am73 °FPartly sunny.8 mph94%30.09 "Hg10 mi
6:53 am71 °FPassing clouds.7 mph96%30.05 "Hg7 mi
Weather by CustomWeather, © 2019

See weather overview